(°C)
10°
11°
11°
12°
12°
(°C)
SSW
SSW
SSW
SSW
SSW
SW
SW
(km/h)
19-39
20-41
22-44
23-47
24-49
25-50
24-49
(mm)
0
0
0
0
0
0
0
(%)
0
0
0
0
0
0
0

Sonnenhöhe

/ 5.9°
sun-icon
UV 1
08:16
18:10
Abnehmender Mond (233°)
20:04
13:31

METAR für 55.03°N 82.6°O (UNNT)

Zeit Bedingungen Temperatur/
Taupunkt
Wind Sichtweite Wetter Wolken Druck Änderung Roh
VFR 8°C / 5°C 200º 14kt. Wind Shear present on Runway 25. >10km - Clouds and Visibility OK 1016 No Significant change. Runway 25: Clear and dry, 51-100% contamination with <1mm, friction coefficient 0.70. Runway 16: deposit not reported, . UNNT 250200Z 20007MPS CAVOK 08/05 Q1016 WS R25 R25/090070 R16/////// NOSIG RMK QFE752/1002
VFR 8°C / 5°C 200º 12kt >10km - Clouds and Visibility OK 1016 No Significant change. Runway 25: Clear and dry, 51-100% contamination with <1mm, friction coefficient 0.70. Runway 16: deposit not reported, . UNNT 250130Z 20006MPS CAVOK 08/05 Q1016 R25/090070 R16/////// NOSIG RMK QFE752/1002
VFR 7°C / 5°C 190º 10kt >10km - Clouds and Visibility OK 1016 No Significant change. Runway 25: Clear and dry, 51-100% contamination with <1mm, friction coefficient 0.70. Runway 16: deposit not reported, . UNNT 250100Z 19005MPS CAVOK 07/05 Q1016 R25/090070 R16/////// NOSIG RMK QFE752/1003
VFR 7°C / 5°C 190º 10kt >10km - Broken Clouds 4000ft 1016 No Significant change. Runway 25: Clear and dry, 51-100% contamination with <1mm, friction coefficient 0.70. Runway 16: Clear and dry, 51-100% contamination with <1mm, friction coefficient 0.70. UNNT 250030Z 19005MPS 9999 BKN040 07/05 Q1016 R25/090070 R16/090070 NOSIG RMK QFE752/1003
VFR 7°C / 5°C 200º 10kt >10km - Broken Clouds 3800ft 1017 No Significant change. Runway 25: Clear and dry, 51-100% contamination with <1mm, friction coefficient 0.70. Runway 16: Clear and dry, 51-100% contamination with <1mm, friction coefficient 0.70. UNNT 250000Z 20005MPS 9999 BKN038 07/05 Q1017 R25/090070 R16/090070 NOSIG RMK QFE752/1003
VFR 7°C / 5°C 200º 10kt >10km - Scattered Clouds 4000ft 1017 No Significant change. Runway 25: Clear and dry, 51-100% contamination with <1mm, friction coefficient 0.70. Runway 16: Clear and dry, 51-100% contamination with <1mm, friction coefficient 0.70. UNNT 242330Z 20005MPS 9999 SCT040 07/05 Q1017 R25/090070 R16/090070 NOSIG RMK QFE752/1003
VFR 8°C / 5°C 210º 10kt >10km - Scattered Clouds 4000ft 1017 No Significant change. Runway 25: Clear and dry, 51-100% contamination with <1mm, friction coefficient 0.70. Runway 16: Clear and dry, 51-100% contamination with <1mm, friction coefficient 0.70. UNNT 242300Z 21005MPS 9999 SCT040 08/05 Q1017 R25/090070 R16/090070 NOSIG RMK QFE753/1004
VFR 8°C / 5°C 200º 10kt >10km - Scattered Clouds 4000ft 1017 No Significant change. Runway 25: Clear and dry, 51-100% contamination with <1mm, friction coefficient 0.70. Runway 16: Clear and dry, 51-100% contamination with <1mm, friction coefficient 0.70. UNNT 242230Z 20005MPS 9999 SCT040 08/05 Q1017 R25/090070 R16/090070 NOSIG RMK QFE753/1004
VFR 8°C / 5°C 210º 10kt >10km - Few Clouds 3500ft 1017 No Significant change. Runway 25: Clear and dry, 51-100% contamination with <1mm, friction coefficient 0.70. Runway 16: Clear and dry, 51-100% contamination with <1mm, friction coefficient 0.70. UNNT 242200Z 21005MPS 9999 FEW035 08/05 Q1017 R25/090070 R16/090070 NOSIG RMK QFE753/1004
VFR 8°C / 5°C 210º 10kt >10km - Few Clouds 3500ft 1018 No Significant change. Runway 25: Clear and dry, 51-100% contamination with <1mm, friction coefficient 0.70. Runway 16: Clear and dry, 51-100% contamination with <1mm, friction coefficient 0.70. UNNT 242130Z 21005MPS 9999 FEW035 08/05 Q1018 R25/090070 R16/090070 NOSIG RMK QFE753/1005
VFR 8°C / 5°C 210º 10kt >10km - Scattered Clouds 3300ft 1018 No Significant change. Runway 25: Clear and dry, 51-100% contamination with <1mm, friction coefficient 0.70. Runway 16: Clear and dry, 51-100% contamination with <1mm, friction coefficient 0.70. UNNT 242100Z 21005MPS 9999 SCT033 08/05 Q1018 R25/090070 R16/090070 NOSIG RMK QFE753/1005
VFR 8°C / 5°C 210º 10kt >10km - Scattered Clouds 3500ft 1018 No Significant change. Runway 25: Clear and dry, 51-100% contamination with <1mm, friction coefficient 0.70. Runway 16: Clear and dry, 51-100% contamination with <1mm, friction coefficient 0.70. UNNT 242030Z 21005MPS 9999 SCT035 08/05 Q1018 R25/090070 R16/090070 NOSIG RMK QFE754/1005
VFR 8°C / 5°C 200º 10kt >10km - Clouds and Visibility OK 1019 No Significant change. Runway 25: Clear and dry, 51-100% contamination with <1mm, friction coefficient 0.70. Runway 16: Clear and dry, 51-100% contamination with <1mm, friction coefficient 0.70. UNNT 242000Z 20005MPS CAVOK 08/05 Q1019 R25/090070 R16/090070 NOSIG RMK QFE754/1005
VFR 8°C / 5°C 200º 12kt >10km - Clouds and Visibility OK 1019 No Significant change. Runway 25: Clear and dry, 51-100% contamination with <1mm, friction coefficient 0.70. Runway 16: Clear and dry, 51-100% contamination with <1mm, friction coefficient 0.70. UNNT 241930Z 20006MPS CAVOK 08/05 Q1019 R25/090070 R16/090070 NOSIG RMK QFE754/1005
VFR 7°C / 5°C 200º 12kt >10km - Clouds and Visibility OK 1019 No Significant change. Runway 25: Clear and dry, 51-100% contamination with <1mm, friction coefficient 0.70. Runway 16: Clear and dry, 51-100% contamination with <1mm, friction coefficient 0.70. UNNT 241900Z 20006MPS CAVOK 07/05 Q1019 R25/090070 R16/090070 NOSIG RMK QFE754/1005
VFR 7°C / 5°C 200º 12kt >10km - Clouds and Visibility OK 1019 No Significant change. Runway 25: Clear and dry, 51-100% contamination with <1mm, friction coefficient 0.70. Runway 16: Clear and dry, 51-100% contamination with <1mm, friction coefficient 0.70. UNNT 241830Z 20006MPS CAVOK 07/05 Q1019 R25/090070 R16/090070 NOSIG RMK QFE754/1006
VFR 7°C / 5°C 200º 12kt >10km - Clouds and Visibility OK 1019 No Significant change. Runway 25: Clear and dry, 51-100% contamination with <1mm, friction coefficient 0.70. Runway 16: Clear and dry, 51-100% contamination with <1mm, friction coefficient 0.70. UNNT 241800Z 20006MPS CAVOK 07/05 Q1019 R25/090070 R16/090070 NOSIG RMK QFE754/1006
VFR 8°C / 5°C 190º 12kt >10km - Clouds and Visibility OK 1019 No Significant change. Runway 25: Clear and dry, 51-100% contamination with <1mm, friction coefficient 0.70. Runway 16: Clear and dry, 51-100% contamination with <1mm, friction coefficient 0.70. UNNT 241730Z 19006MPS CAVOK 08/05 Q1019 R25/090070 R16/090070 NOSIG RMK QFE754/1006
VFR 9°C / 6°C 200º 10kt >10km - Clouds and Visibility OK 1020 No Significant change. Runway 25: Clear and dry, 51-100% contamination with <1mm, friction coefficient 0.70. Runway 16: Clear and dry, 51-100% contamination with <1mm, friction coefficient 0.70. UNNT 241700Z 20005MPS CAVOK 09/06 Q1020 R25/090070 R16/090070 NOSIG RMK QFE755/1006
VFR 10°C / 6°C 210º 12kt >10km - Clouds and Visibility OK 1020 No Significant change. Runway 25: Clear and dry, 51-100% contamination with <1mm, friction coefficient 0.70. Runway 16: Clear and dry, 51-100% contamination with <1mm, friction coefficient 0.70. UNNT 241630Z 21006MPS CAVOK 10/06 Q1020 R25/090070 R16/090070 NOSIG RMK QFE755/1006
VFR 9°C / 6°C 220º 14kt >10km - Clouds and Visibility OK 1020 No Significant change. Runway 25: Clear and dry, 51-100% contamination with <1mm, friction coefficient 0.70. Runway 16: Clear and dry, 51-100% contamination with <1mm, friction coefficient 0.70. UNNT 241600Z 22007MPS CAVOK 09/06 Q1020 R25/090070 R16/090070 NOSIG RMK QFE755/1006
VFR 9°C / 6°C 210º 12kt >10km - Scattered Clouds 3100ft 1020 No Significant change. Runway 25: Clear and dry, 51-100% contamination with <1mm, friction coefficient 0.70. Runway 16: Clear and dry, 51-100% contamination with <1mm, friction coefficient 0.70. UNNT 241530Z 21006MPS 9999 SCT031 09/06 Q1020 R25/090070 R16/090070 NOSIG RMK QFE755/1006
VFR 9°C / 5°C 210º 12kt >10km - Clouds and Visibility OK 1020 No Significant change. Runway 25: Clear and dry, 51-100% contamination with <1mm, friction coefficient 0.70. Runway 16: Clear and dry, 51-100% contamination with <1mm, friction coefficient 0.70. UNNT 241500Z 21006MPS CAVOK 09/05 Q1020 R25/090070 R16/090070 NOSIG RMK QFE755/1006
VFR 8°C / 3°C 200º 10kt >10km - Clouds and Visibility OK 1020 No Significant change. Runway 25: Clear and dry, 51-100% contamination with <1mm, friction coefficient 0.70. Runway 16: Clear and dry, 51-100% contamination with <1mm, friction coefficient 0.70. UNNT 241430Z 20005MPS CAVOK 08/03 Q1020 R25/090070 R16/090070 NOSIG RMK QFE755/1006

VFR

8°C / 5°C

[Mehr]
Wind 200º 14kt. Wind Shear present on Runway 25.
Sichtweite >10km
Wetter -
Wolken Clouds and Visibility OK
Druck 1016
Änderung No Significant change. Runway 25: Clear and dry, 51-100% contamination with <1mm, friction coefficient 0.70. Runway 16: deposit not reported, .
Roh UNNT 250200Z 20007MPS CAVOK 08/05 Q1016 WS R25 R25/090070 R16/////// NOSIG RMK QFE752/1002

VFR

8°C / 5°C

[Mehr]
Wind 200º 12kt
Sichtweite >10km
Wetter -
Wolken Clouds and Visibility OK
Druck 1016
Änderung No Significant change. Runway 25: Clear and dry, 51-100% contamination with <1mm, friction coefficient 0.70. Runway 16: deposit not reported, .
Roh UNNT 250130Z 20006MPS CAVOK 08/05 Q1016 R25/090070 R16/////// NOSIG RMK QFE752/1002

VFR

7°C / 5°C

[Mehr]
Wind 190º 10kt
Sichtweite >10km
Wetter -
Wolken Clouds and Visibility OK
Druck 1016
Änderung No Significant change. Runway 25: Clear and dry, 51-100% contamination with <1mm, friction coefficient 0.70. Runway 16: deposit not reported, .
Roh UNNT 250100Z 19005MPS CAVOK 07/05 Q1016 R25/090070 R16/////// NOSIG RMK QFE752/1003

VFR

7°C / 5°C

[Mehr]
Wind 190º 10kt
Sichtweite >10km
Wetter -
Wolken Broken Clouds 4000ft
Druck 1016
Änderung No Significant change. Runway 25: Clear and dry, 51-100% contamination with <1mm, friction coefficient 0.70. Runway 16: Clear and dry, 51-100% contamination with <1mm, friction coefficient 0.70.
Roh UNNT 250030Z 19005MPS 9999 BKN040 07/05 Q1016 R25/090070 R16/090070 NOSIG RMK QFE752/1003

VFR

7°C / 5°C

[Mehr]
Wind 200º 10kt
Sichtweite >10km
Wetter -
Wolken Broken Clouds 3800ft
Druck 1017
Änderung No Significant change. Runway 25: Clear and dry, 51-100% contamination with <1mm, friction coefficient 0.70. Runway 16: Clear and dry, 51-100% contamination with <1mm, friction coefficient 0.70.
Roh UNNT 250000Z 20005MPS 9999 BKN038 07/05 Q1017 R25/090070 R16/090070 NOSIG RMK QFE752/1003

VFR

7°C / 5°C

[Mehr]
Wind 200º 10kt
Sichtweite >10km
Wetter -
Wolken Scattered Clouds 4000ft
Druck 1017
Änderung No Significant change. Runway 25: Clear and dry, 51-100% contamination with <1mm, friction coefficient 0.70. Runway 16: Clear and dry, 51-100% contamination with <1mm, friction coefficient 0.70.
Roh UNNT 242330Z 20005MPS 9999 SCT040 07/05 Q1017 R25/090070 R16/090070 NOSIG RMK QFE752/1003

VFR

8°C / 5°C

[Mehr]
Wind 210º 10kt
Sichtweite >10km
Wetter -
Wolken Scattered Clouds 4000ft
Druck 1017
Änderung No Significant change. Runway 25: Clear and dry, 51-100% contamination with <1mm, friction coefficient 0.70. Runway 16: Clear and dry, 51-100% contamination with <1mm, friction coefficient 0.70.
Roh UNNT 242300Z 21005MPS 9999 SCT040 08/05 Q1017 R25/090070 R16/090070 NOSIG RMK QFE753/1004

VFR

8°C / 5°C

[Mehr]
Wind 200º 10kt
Sichtweite >10km
Wetter -
Wolken Scattered Clouds 4000ft
Druck 1017
Änderung No Significant change. Runway 25: Clear and dry, 51-100% contamination with <1mm, friction coefficient 0.70. Runway 16: Clear and dry, 51-100% contamination with <1mm, friction coefficient 0.70.
Roh UNNT 242230Z 20005MPS 9999 SCT040 08/05 Q1017 R25/090070 R16/090070 NOSIG RMK QFE753/1004

VFR

8°C / 5°C

[Mehr]
Wind 210º 10kt
Sichtweite >10km
Wetter -
Wolken Few Clouds 3500ft
Druck 1017
Änderung No Significant change. Runway 25: Clear and dry, 51-100% contamination with <1mm, friction coefficient 0.70. Runway 16: Clear and dry, 51-100% contamination with <1mm, friction coefficient 0.70.
Roh UNNT 242200Z 21005MPS 9999 FEW035 08/05 Q1017 R25/090070 R16/090070 NOSIG RMK QFE753/1004

VFR

8°C / 5°C

[Mehr]
Wind 210º 10kt
Sichtweite >10km
Wetter -
Wolken Few Clouds 3500ft
Druck 1018
Änderung No Significant change. Runway 25: Clear and dry, 51-100% contamination with <1mm, friction coefficient 0.70. Runway 16: Clear and dry, 51-100% contamination with <1mm, friction coefficient 0.70.
Roh UNNT 242130Z 21005MPS 9999 FEW035 08/05 Q1018 R25/090070 R16/090070 NOSIG RMK QFE753/1005

VFR

8°C / 5°C

[Mehr]
Wind 210º 10kt
Sichtweite >10km
Wetter -
Wolken Scattered Clouds 3300ft
Druck 1018
Änderung No Significant change. Runway 25: Clear and dry, 51-100% contamination with <1mm, friction coefficient 0.70. Runway 16: Clear and dry, 51-100% contamination with <1mm, friction coefficient 0.70.
Roh UNNT 242100Z 21005MPS 9999 SCT033 08/05 Q1018 R25/090070 R16/090070 NOSIG RMK QFE753/1005

VFR

8°C / 5°C

[Mehr]
Wind 210º 10kt
Sichtweite >10km
Wetter -
Wolken Scattered Clouds 3500ft
Druck 1018
Änderung No Significant change. Runway 25: Clear and dry, 51-100% contamination with <1mm, friction coefficient 0.70. Runway 16: Clear and dry, 51-100% contamination with <1mm, friction coefficient 0.70.
Roh UNNT 242030Z 21005MPS 9999 SCT035 08/05 Q1018 R25/090070 R16/090070 NOSIG RMK QFE754/1005

VFR

8°C / 5°C

[Mehr]
Wind 200º 10kt
Sichtweite >10km
Wetter -
Wolken Clouds and Visibility OK
Druck 1019
Änderung No Significant change. Runway 25: Clear and dry, 51-100% contamination with <1mm, friction coefficient 0.70. Runway 16: Clear and dry, 51-100% contamination with <1mm, friction coefficient 0.70.
Roh UNNT 242000Z 20005MPS CAVOK 08/05 Q1019 R25/090070 R16/090070 NOSIG RMK QFE754/1005

VFR

8°C / 5°C

[Mehr]
Wind 200º 12kt
Sichtweite >10km
Wetter -
Wolken Clouds and Visibility OK
Druck 1019
Änderung No Significant change. Runway 25: Clear and dry, 51-100% contamination with <1mm, friction coefficient 0.70. Runway 16: Clear and dry, 51-100% contamination with <1mm, friction coefficient 0.70.
Roh UNNT 241930Z 20006MPS CAVOK 08/05 Q1019 R25/090070 R16/090070 NOSIG RMK QFE754/1005

VFR

7°C / 5°C

[Mehr]
Wind 200º 12kt
Sichtweite >10km
Wetter -
Wolken Clouds and Visibility OK
Druck 1019
Änderung No Significant change. Runway 25: Clear and dry, 51-100% contamination with <1mm, friction coefficient 0.70. Runway 16: Clear and dry, 51-100% contamination with <1mm, friction coefficient 0.70.
Roh UNNT 241900Z 20006MPS CAVOK 07/05 Q1019 R25/090070 R16/090070 NOSIG RMK QFE754/1005

VFR

7°C / 5°C

[Mehr]
Wind 200º 12kt
Sichtweite >10km
Wetter -
Wolken Clouds and Visibility OK
Druck 1019
Änderung No Significant change. Runway 25: Clear and dry, 51-100% contamination with <1mm, friction coefficient 0.70. Runway 16: Clear and dry, 51-100% contamination with <1mm, friction coefficient 0.70.
Roh UNNT 241830Z 20006MPS CAVOK 07/05 Q1019 R25/090070 R16/090070 NOSIG RMK QFE754/1006

VFR

7°C / 5°C

[Mehr]
Wind 200º 12kt
Sichtweite >10km
Wetter -
Wolken Clouds and Visibility OK
Druck 1019
Änderung No Significant change. Runway 25: Clear and dry, 51-100% contamination with <1mm, friction coefficient 0.70. Runway 16: Clear and dry, 51-100% contamination with <1mm, friction coefficient 0.70.
Roh UNNT 241800Z 20006MPS CAVOK 07/05 Q1019 R25/090070 R16/090070 NOSIG RMK QFE754/1006

VFR

8°C / 5°C

[Mehr]
Wind 190º 12kt
Sichtweite >10km
Wetter -
Wolken Clouds and Visibility OK
Druck 1019
Änderung No Significant change. Runway 25: Clear and dry, 51-100% contamination with <1mm, friction coefficient 0.70. Runway 16: Clear and dry, 51-100% contamination with <1mm, friction coefficient 0.70.
Roh UNNT 241730Z 19006MPS CAVOK 08/05 Q1019 R25/090070 R16/090070 NOSIG RMK QFE754/1006

VFR

9°C / 6°C

[Mehr]
Wind 200º 10kt
Sichtweite >10km
Wetter -
Wolken Clouds and Visibility OK
Druck 1020
Änderung No Significant change. Runway 25: Clear and dry, 51-100% contamination with <1mm, friction coefficient 0.70. Runway 16: Clear and dry, 51-100% contamination with <1mm, friction coefficient 0.70.
Roh UNNT 241700Z 20005MPS CAVOK 09/06 Q1020 R25/090070 R16/090070 NOSIG RMK QFE755/1006

VFR

10°C / 6°C

[Mehr]
Wind 210º 12kt
Sichtweite >10km
Wetter -
Wolken Clouds and Visibility OK
Druck 1020
Änderung No Significant change. Runway 25: Clear and dry, 51-100% contamination with <1mm, friction coefficient 0.70. Runway 16: Clear and dry, 51-100% contamination with <1mm, friction coefficient 0.70.
Roh UNNT 241630Z 21006MPS CAVOK 10/06 Q1020 R25/090070 R16/090070 NOSIG RMK QFE755/1006

VFR

9°C / 6°C

[Mehr]
Wind 220º 14kt
Sichtweite >10km
Wetter -
Wolken Clouds and Visibility OK
Druck 1020
Änderung No Significant change. Runway 25: Clear and dry, 51-100% contamination with <1mm, friction coefficient 0.70. Runway 16: Clear and dry, 51-100% contamination with <1mm, friction coefficient 0.70.
Roh UNNT 241600Z 22007MPS CAVOK 09/06 Q1020 R25/090070 R16/090070 NOSIG RMK QFE755/1006

VFR

9°C / 6°C

[Mehr]
Wind 210º 12kt
Sichtweite >10km
Wetter -
Wolken Scattered Clouds 3100ft
Druck 1020
Änderung No Significant change. Runway 25: Clear and dry, 51-100% contamination with <1mm, friction coefficient 0.70. Runway 16: Clear and dry, 51-100% contamination with <1mm, friction coefficient 0.70.
Roh UNNT 241530Z 21006MPS 9999 SCT031 09/06 Q1020 R25/090070 R16/090070 NOSIG RMK QFE755/1006

VFR

9°C / 5°C

[Mehr]
Wind 210º 12kt
Sichtweite >10km
Wetter -
Wolken Clouds and Visibility OK
Druck 1020
Änderung No Significant change. Runway 25: Clear and dry, 51-100% contamination with <1mm, friction coefficient 0.70. Runway 16: Clear and dry, 51-100% contamination with <1mm, friction coefficient 0.70.
Roh UNNT 241500Z 21006MPS CAVOK 09/05 Q1020 R25/090070 R16/090070 NOSIG RMK QFE755/1006

VFR

8°C / 3°C

[Mehr]
Wind 200º 10kt
Sichtweite >10km
Wetter -
Wolken Clouds and Visibility OK
Druck 1020
Änderung No Significant change. Runway 25: Clear and dry, 51-100% contamination with <1mm, friction coefficient 0.70. Runway 16: Clear and dry, 51-100% contamination with <1mm, friction coefficient 0.70.
Roh UNNT 241430Z 20005MPS CAVOK 08/03 Q1020 R25/090070 R16/090070 NOSIG RMK QFE755/1006

TAF für 55.03°N 82.6°O (UNNT)

From till


From till Wind 200º 14kt. Gust 31kt. Visibility 10km or more. Broken Clouds 4000ft.
Temporarly from till Wind 250º 19kt. Gust 35kt.
Becoming from till Wind 180º 6kt. Gust 16kt. Visibility 10km or more. Broken Clouds 4000ft.

Roh: TAF UNNT 242300Z 2500/2524 20007G16MPS 9999 BKN040CB TEMPO 2503/2512 25010G18MPS BECMG 2515/2518 18003G08MPS

Aktuelle Satelliten- und Regenbilder für 55.03°N 82.6°O

Die Standortmarkierung ist platziert auf 55.03°N 82.6°O. [Mehr]

Das Echtzeit-Satellitenbild kombiniert sichtbares Licht während des Tages mit Infrarotstrahlung während der Nacht. Nachts ist das Bild nicht dunkel, da Infrarotstrahlung Temperaturunterschiede erkennen kann. Leider sind niedrige Wolken und Nebel nur schwer von den Bodentemperaturen zu unterscheiden und können daher nachts fast unsichtbar sein. Meteosat-Satellitenbilder für Europa werden alle 5 Minuten in Echtzeit aktualisiert. Die Bilder GOES-16 / GOES-17 (Nord- und Südamerika) und Himawari (Asien) werden alle 10 Minuten aktualisiert.

Copyright 2021 EUMETSAT / meteoblue. / Copyright 2021 meteoblue

Radar- und Niederschlags-Nowcast für 55.03°N 82.6°O

Nieselregen
Leicht
Moderat
Stark
Sehr schwer
Hagel

Die Ortsmarkierung zeigt auf 55.03°N 82.6°O. Diese Animation zeigt das Niederschlagsradar der letzten Stunde, sowie eine 1h Vorhersage. Nieselregen und leichter Schneefall können für das Radar unsichtbar sein. Die Niederschlagsintensität ist farbcodiert von Hellblau bis Orange.